Stations météo

réclame
Mon MeteoGroup
Hemavan A, Suède (2101): Température de l'air & dewpoint: 13.02.2020 22:00:00 - 19.02.2020 22:00:00 (CET)Hemavan A, Suède (2101): Vitesse du vent: 13.02.2020 22:00:00 - 19.02.2020 22:00:00 (CET)Hemavan A, Suède (2101): Direction du vent: 13.02.2020 22:00:00 - 19.02.2020 22:00:00 (CET)Hemavan A, Suède (2101): reduced air pressure: 13.02.2020 22:00:00 - 19.02.2020 22:00:00 (CET)Hemavan A, Suède (2101): visibility: 13.02.2020 22:00:00 - 19.02.2020 22:00:00 (CET)
Date & Time tt [°C] td [°C] ff [km/h] ff [knt] dd ppp [hPa] vv [km]
19.02.2020 22:00:00 -16,0 -17,6 0 0 N 1007,3 35
19.02.2020 21:00:00 -19,6 -21,6 4 2 WSW 1007,8 50
19.02.2020 20:00:00 -17,3 -18,9 0 0 N 1007,3 2,8
19.02.2020 19:00:00 -16,7 -18,2 4 2 WNW 1006,4 30
19.02.2020 18:00:00 -14,6 -15,7 4 2 N 1005,7 50
19.02.2020 17:00:00 -12,9 -13,7 0 0 N 1004,6 50
19.02.2020 16:00:00 -12,1 -14,8 4 2 WSW 1003,8 50
19.02.2020 15:00:00 -8,5 -10,6 4 2 W 1002,7 35
19.02.2020 14:00:00 -5,1 -10,3 0 0 N 1001,4 45
19.02.2020 13:00:00 -4,2 -9,4 0 0 N 1000,4 50
19.02.2020 12:00:00 -7,9 -10,0 0 0 N 1000,1 30
19.02.2020 11:00:00 -9,8 -11,3 0 0 N 999,3 24
19.02.2020 10:00:00 -12,2 -14,1 0 0 N 998,6 3,9
19.02.2020 09:00:00 -11,3 -12,6 4 2 W 997,6 23
19.02.2020 08:00:00 -10,6 -11,6 0 0 N 996,3 30
19.02.2020 07:00:00 -11,2 -12,5 0 0 N 995,0 19
19.02.2020 06:00:00 -12,2 -13,5 4 2 ESE 994,2 15
19.02.2020 05:00:00 -14,2 -15,7 4 2 NE 993,3 27
19.02.2020 04:00:00 -11,9 -12,9 4 2 NNE 992,3 12
19.02.2020 03:00:00 -9,5 -10,2 4 2 W 991,1 30
19.02.2020 02:00:00 -5,8 -8,9 7 4 W 989,9 45
19.02.2020 01:00:00 -5,9 -9,0 4 2 ENE 988,9 45
19.02.2020 00:00:00 -4,5 -9,0 22 12 NW 987,9 50
18.02.2020 23:00:00 -3,2 -8,5 14 8 WNW 986,8 50
18.02.2020 22:00:00 -2,7 -7,8 18 10 WNW 986,3 45
18.02.2020 21:00:00 -1,5 -6,4 14 8 NW 985,4 50
18.02.2020 20:00:00 -1,4 -5,6 11 6 W 984,5 17
18.02.2020 19:00:00 -1,2 -4,9 22 12 WNW 982,9 50
18.02.2020 18:00:00 -1,3 -5,3 32 18 NW 981,6 22
18.02.2020 17:00:00 -0,5 -4,4 25 14 NW 981,0 50
18.02.2020 16:00:00 -0,2 -3,9 25 14 NW 980,1 30
18.02.2020 15:00:00 0,6 -3,1 18 10 WNW 979,0 19
18.02.2020 14:00:00 0,6 -2,6 18 10 NW 977,8 50
18.02.2020 13:00:00 1,3 -2,3 7 4 W 976,4 45
18.02.2020 12:00:00 1,5 -1,2 14 8 WSW 975,5 12
18.02.2020 11:00:00 1,4 -1,8 14 8 W 975,2 45
18.02.2020 10:00:00 0,9 -1,3 4 2 S 975,2 11
18.02.2020 09:00:00 -0,5 -1,9 0 0 N 975,1 50
18.02.2020 08:00:00 -0,6 -1,3 4 2 SE 974,6 13
18.02.2020 07:00:00 -1,0 -3,0 4 2 ESE 974,1 40
18.02.2020 06:00:00 -3,7 -4,2 7 4 S 974,1 50
18.02.2020 05:00:00 -3,4 -3,9 0 0 N 973,5 2,7
18.02.2020 04:00:00 -5,4 -6,4 4 2 S 973,3 2,4
18.02.2020 03:00:00 -5,8 -6,7 4 2 S 973,0 3,4
18.02.2020 02:00:00 -6,0 -6,9 7 4 SE 972,5 4,9
18.02.2020 01:00:00 -5,9 -6,8 4 2 S 972,1 3,7
18.02.2020 00:00:00 -5,7 -6,9 11 6 ESE 971,3 4,4
17.02.2020 23:00:00 -6,0 -6,7 14 8 SE 970,0 50
17.02.2020 22:00:00 -5,5 -6,7 14 8 ESE 970,0 50
17.02.2020 21:00:00 -5,3 -6,5 11 6 ESE 970,0 50
17.02.2020 20:00:00 -4,3 -5,8 11 6 E 969,2 50
17.02.2020 19:00:00 -4,0 -5,8 11 6 ESE 968,8 50
17.02.2020 18:00:00 -3,0 -5,6 11 6 E 968,3 50
17.02.2020 17:00:00 -2,8 -5,9 11 6 SSE 967,8 50
17.02.2020 16:00:00 -1,4 -5,3 11 6 SE 967,7 50
17.02.2020 15:00:00 -1,1 -5,3 14 8 SSE 967,9 50
17.02.2020 14:00:00 -0,5 -5,7 7 4 ESE 967,7 35
17.02.2020 13:00:00 -2,0 -4,8 14 8 SSE 967,9 40
17.02.2020 12:00:00 -2,0 -4,8 14 8 SSE 967,9 40
17.02.2020 11:00:00 -3,2 -5,2 11 6 SE 968,1 35
17.02.2020 10:00:00 -5,9 -6,8 11 6 SE 968,4 50
17.02.2020 09:00:00 -2,8 -3,9 7 4 ESE 967,6 50
17.02.2020 08:00:00 -2,7 -3,2 4 2 S 967,2 45
17.02.2020 07:00:00 -2,5 -3,0 7 4 S 967,1 2,4
17.02.2020 06:00:00 -2,0 -2,8 4 2 SE 966,9 7
17.02.2020 05:00:00 -1,8 -2,9 4 2 NNE 966,6 16
17.02.2020 04:00:00 -1,7 -2,5 4 2 S 966,9 8
17.02.2020 03:00:00 -3,9 -4,4 4 2 N 967,3 35
17.02.2020 02:00:00 -2,8 -3,2 0 0 N 966,9 10
17.02.2020 01:00:00 -2,8 -3,3 0 0 N 966,5 50
17.02.2020 00:00:00 -3,1 -3,6 0 0 N 966,1 23
16.02.2020 23:00:00 -3,5 -4,0 4 2 SW 966,0 19
16.02.2020 22:00:00 -4,2 -4,7 4 2 N 965,6 50
16.02.2020 21:00:00 -4,0 -4,5 4 2 NW 965,5 50
16.02.2020 20:00:00 -5,2 -5,6 4 2 NW 965,6 20
16.02.2020 19:00:00 -3,3 -4,1 4 2 S 965,7 50
16.02.2020 18:00:00 -2,5 -3,3 4 2 WNW 966,6 50
16.02.2020 17:00:00 -2,0 -3,0 7 4 E 966,9 50
16.02.2020 16:00:00 -0,1 -1,2 11 6 SE 967,6 50
16.02.2020 15:00:00 0,1 -1,0 11 6 SE 969,1 50
16.02.2020 14:00:00 0,1 -1,0 11 6 SE 969,7 45
16.02.2020 13:00:00 -0,3 -1,1 11 6 SSE 970,9 3,3
16.02.2020 12:00:00 0,2 -2,0 11 6 S 970,8 5
16.02.2020 11:00:00 -0,1 -2,3 32 18 SSE 971,5 3,4
16.02.2020 10:00:00 -0,3 -2,4 43 23 SE 972,2 1,2
16.02.2020 09:00:00 -0,2 -2,6 50 27 SE 973,6 0,9
16.02.2020 08:00:00 -0,3 -2,8 54 29 SE 975,1 0,6
16.02.2020 07:00:00 -0,7 -2,4 58 31 SE 976,6 0,6
16.02.2020 06:00:00 -1,1 -3,8 47 25 SE 979,5 0,9
16.02.2020 05:00:00 -0,9 -4,4 43 23 ESE 983,4 0,6
16.02.2020 04:00:00 -0,4 -5,8 47 25 SE 985,6 3,8
16.02.2020 03:00:00 -1,2 -5,4 32 18 SSE 988,0 7
16.02.2020 02:00:00 -3,1 -5,7 25 14 SE 991,1 16
16.02.2020 01:00:00 -9,7 -10,8 0 0 N 993,8 10
16.02.2020 00:00:00 -6,0 -6,7 7 4 ESE 995,8 16
15.02.2020 23:00:00 -6,8 -7,7 7 4 SE 997,0 16
15.02.2020 22:00:00 -5,1 -5,8 7 4 ESE 997,0 15
15.02.2020 21:00:00 -5,2 -5,7 7 4 SE 997,5 35
15.02.2020 20:00:00 -4,1 -4,9 4 2 E 997,1 35
15.02.2020 19:00:00 -4,3 -5,1 4 2 WSW 997,3 15
15.02.2020 18:00:00 -5,0 -6,0 4 2 S 997,6 11
15.02.2020 17:00:00 -5,1 -5,9 4 2 NW 997,5 2,3
15.02.2020 16:00:00 -5,2 -6,2 4 2 ESE 997,3 1,0
15.02.2020 15:00:00 -5,2 -7,0 7 4 SE 996,5 6
15.02.2020 14:00:00 -5,9 -7,6 14 8 SE 996,3 7
15.02.2020 13:00:00 -6,2 -7,9 14 8 ESE 996,3 2,9
15.02.2020 12:00:00 -6,6 -8,3 18 10 SE 996,5 2,6
15.02.2020 11:00:00 -6,9 -8,6 14 8 SE 997,0 1,7
15.02.2020 10:00:00 -7,4 -9,0 14 8 SE 997,4 2,2
15.02.2020 09:00:00 -7,5 -9,4 14 8 SE 997,5 50
15.02.2020 08:00:00 -7,5 -9,1 14 8 SE 997,9 1,9
15.02.2020 07:00:00 -6,6 -9,6 11 6 SE 997,6 12
15.02.2020 06:00:00 -7,2 -9,9 14 8 SSE 999,3 50
15.02.2020 05:00:00 -5,6 -9,3 11 6 SSW 998,7 50
15.02.2020 04:00:00 -5,6 -9,2 14 8 SSE 999,4 50
15.02.2020 03:00:00 -6,7 -9,7 14 8 SSE 1000,6 50
15.02.2020 02:00:00 -6,8 -10,0 7 4 SSE 1002,2 50
15.02.2020 01:00:00 -7,0 -9,2 7 4 E 1004,2 50
15.02.2020 00:00:00 -6,4 -8,8 7 4 ENE 1005,0 50
14.02.2020 23:00:00 -6,1 -8,2 7 4 E 1006,0 50
14.02.2020 22:00:00 -5,7 -7,5 7 4 SE 1007,4 50
14.02.2020 21:00:00 -5,8 -7,6 11 6 ESE 1008,2 50
14.02.2020 20:00:00 -7,7 -8,4 4 2 SSE 1008,8 50
14.02.2020 19:00:00 -6,0 -6,9 7 4 ESE 1009,5 50
14.02.2020 18:00:00 -8,1 -9,0 7 4 SSE 1010,0 50
14.02.2020 17:00:00 -8,7 -9,9 4 2 S 1010,2 50
14.02.2020 16:00:00 -5,4 -7,8 4 2 ESE 1009,9 50
14.02.2020 15:00:00 -5,1 -7,1 4 2 S 1009,5 45
14.02.2020 14:00:00 -3,4 -6,0 0 0 N 1009,0 23
14.02.2020 13:00:00 -3,4 -6,2 0 0 N 1008,6 13
14.02.2020 12:00:00 -4,1 -5,9 4 2 SSW 1008,2 10
14.02.2020 11:00:00 -5,4 -6,9 11 6 SSE 1007,9 4,2
14.02.2020 10:00:00 -6,0 -7,2 11 6 SE 1007,4 1,4
14.02.2020 09:00:00 -6,4 -7,6 11 6 SE 1006,9 2,0
14.02.2020 08:00:00 -7,1 -8,0 7 4 ESE 1006,5 8
14.02.2020 07:00:00 -9,6 -10,7 4 2 S 1006,2 1,7
14.02.2020 06:00:00 -9,2 -10,3 4 2 NNE 1005,6 6
14.02.2020 05:00:00 -9,4 -10,5 0 0 N 1005,3 6
14.02.2020 04:00:00 -8,5 -9,7 4 2 ESE 1004,5 40
14.02.2020 03:00:00 -10,0 -11,1 0 0 N 1004,3 40
14.02.2020 02:00:00 -9,1 -10,4 4 2 NE 1003,5 50
14.02.2020 01:00:00 -10,8 -11,8 4 2 ESE 1003,0 50
14.02.2020 00:00:00 -9,7 -10,8 4 2 NNE 1002,5 35
13.02.2020 23:00:00 -7,3 -8,5 0 0 N 1001,4 35
13.02.2020 22:00:00 -5,6 -7,7 0 0 N 1000,4 45

tt = Température de l'air
td = dewpoint
ff = Vitesse du vent
dd = Direction du vent
ppp = reduced air pressure
vv = visibility

stations d'obs. à proximité